WetterOnline ( https://www.wetteronline.de )

Wetter aktuell Schlotfeld

Aktuelles Wetter: Itzehoe (26m)

6-stündlich | Neueste Meldungen
Ortszeit Temperatur Wetter
Di, 23.07. 2:00 16.6° C leicht bewölkt
Mo, 22.07. 20:00 20.2° C bedeckt
Mo, 22.07. 14:00 17.9° C bewölkt
Mo, 22.07. 8:00 14.5° C bedeckt
Mo, 22.07. 2:00 11.4° C wolkig
So, 21.07. 20:00 18.2° C leicht bewölkt
So, 21.07. 14:00 20.7° C bewölkt
So, 21.07. 8:00 17.1° C wolkig
Ortszeit Temperatur Wetter
Di, 23.07. 6:30 13.8° C wolkig
Di, 23.07. 6:20 13.8° C Nebel
Di, 23.07. 6:10 13.0° C Nebel
Di, 23.07. 6:00 11.9° C leicht bewölkt
Di, 23.07. 5:50 11.9° C Nebel
Di, 23.07. 5:40 12.5° C Nebel
Di, 23.07. 5:30 12.9° C leicht bewölkt
Di, 23.07. 5:00 12.9° C wolkenlos
Di, 23.07. 4:30 14.9° C wolkenlos
Di, 23.07. 4:00 15.6° C wolkenlos
Di, 23.07. 3:30 15.5° C wolkenlos
Ortszeit Relative Feuchte Sichtweite
Di, 23.07. 2:00 96% 8 km
Mo, 22.07. 20:00 79% 35 km
Mo, 22.07. 14:00 79% 10 km
Mo, 22.07. 8:00 92% 20 km
Mo, 22.07. 2:00 98% 10 km
So, 21.07. 20:00 74% 45 km
So, 21.07. 14:00 67% 25 km
So, 21.07. 8:00 92% 11 km
Ortszeit Relative Feuchte Sichtweite
Di, 23.07. 6:30 99% 100 m
Di, 23.07. 6:20 99% -
Di, 23.07. 6:10 99% -
Di, 23.07. 6:00 97% <100 m
Di, 23.07. 5:50 97% -
Di, 23.07. 5:40 97% -
Di, 23.07. 5:30 100% <100 m
Di, 23.07. 5:00 99% 100 m
Di, 23.07. 4:30 100% 100 m
Di, 23.07. 4:00 99% 0.4 km
Di, 23.07. 3:30 97% 100 m
Ortszeit Niederschlagsmenge Niederschlagsart
Di, 23.07. 2:00 0.0 l/m2 in 6 Std. -
Mo, 22.07. 20:00 0.2 l/m2 in 12 Std. -
Mo, 22.07. 14:00 0.2 l/m2 in 6 Std. -
Mo, 22.07. 8:00 0.0 l/m2 in 12 Std. -
Mo, 22.07. 2:00 0.0 l/m2 in 6 Std. -
So, 21.07. 20:00 0.0 l/m2 in 12 Std. -
So, 21.07. 14:00 0.0 l/m2 in 6 Std. -
So, 21.07. 8:00 0.3 l/m2 in 12 Std. -
Ortszeit Niederschlagsmenge Niederschlagsart
Di, 23.07. 6:30 0.0 l/m2 in 1 Std. -
Di, 23.07. 6:20 keine Meldung -
Di, 23.07. 6:10 keine Meldung -
Di, 23.07. 6:00 0.0 l/m2 in 1 Std. -
Di, 23.07. 5:50 keine Meldung -
Di, 23.07. 5:40 keine Meldung -
Di, 23.07. 5:30 0.0 l/m2 in 1 Std. -
Di, 23.07. 5:00 0.0 l/m2 in 1 Std. -
Di, 23.07. 4:30 0.0 l/m2 in 1 Std. -
Di, 23.07. 4:00 0.0 l/m2 in 1 Std. -
Di, 23.07. 3:30 0.0 l/m2 in 1 Std. -
Ortszeit Stärke Spitze Richtung
km/h Bft. km/h Grad Sektor
Di, 23.07. 2:00 4 1 25 210° SW
Mo, 22.07. 20:00 7 2 32 310° NW
Mo, 22.07. 14:00 7 2 17 150° SO
Mo, 22.07. 8:00 4 1 7 200° S
Mo, 22.07. 2:00 4 1 22 220° SW
So, 21.07. 20:00 9 2 39 320° NW
So, 21.07. 14:00 11 2 43 290° W
So, 21.07. 8:00 11 2 25 240° SW
Ortszeit Stärke Spitze Richtung
km/h Bft. km/h Grad Sektor
Di, 23.07. 6:30 4 1 4 210° SW
Di, 23.07. 6:20 4 1 - 210° SW
Di, 23.07. 6:10 2 1 - 270° W
Di, 23.07. 6:00 4 1 4 50° NO
Di, 23.07. 5:50 4 1 - 50° NO
Di, 23.07. 5:40 0 0 - 50° NO
Di, 23.07. 5:30 4 1 4 90° O
Di, 23.07. 5:00 4 1 4 90° O
Di, 23.07. 4:30 4 1 4 200° S
Di, 23.07. 4:00 4 1 4 210° SW
Di, 23.07. 3:30 0 0 4 - -
Ortszeit Untergrenze Bedeckung Gattung
total tief tief mittel hoch
Di, 23.07. 2:00 1020 m 2/8 2/8 - - -
Mo, 22.07. 20:00 510 m 8/8 8/8 - - -
Mo, 22.07. 14:00 1080 m 7/8 7/8 - - -
Mo, 22.07. 8:00 3600 m 8/8 8/8 - - -
Mo, 22.07. 2:00 <30 m 8/8 0/8 - - -
So, 21.07. 20:00 720 m 4/8 4/8 - - -
So, 21.07. 14:00 750 m 7/8 7/8 - - -
So, 21.07. 8:00 270 m 6/8 6/8 - - -
Ortszeit Bedeckungsgrad in Achtel und Wolkenuntergrenze
Di, 23.07. 6:30 5(<30m)
Di, 23.07. 6:20 5(<30m)
Di, 23.07. 6:10 3(<30m)
Di, 23.07. 6:00 3(<30m)
Di, 23.07. 5:50 3(<30m)
Di, 23.07. 5:40 3(<30m)
Di, 23.07. 5:30 3(<30m)
Di, 23.07. 5:00 keine Wolken
Di, 23.07. 4:30 keine Wolken
Di, 23.07. 4:00 keine Wolken
Di, 23.07. 3:30 keine Wolken
Ortszeit Luftdruck NN (hPa) Tendenz (hPa in 3 Std.)
Di, 23.07. 2:00 1022 + 0,2
Mo, 22.07. 20:00 1021 - 0,2
Mo, 22.07. 14:00 1022 - 0,8
Mo, 22.07. 8:00 1022 - 0,4
Mo, 22.07. 2:00 1023 + 0,4
So, 21.07. 20:00 1021 + 0,9
So, 21.07. 14:00 1019 + 2,6
So, 21.07. 8:00 1014 + 2,0
Ortszeit Luftdruck NN (hPa) Tendenz (hPa in 3 Std.)
Di, 23.07. 6:30 1022 + 0,5
Di, 23.07. 6:20 1022 keine Meldung
Di, 23.07. 6:10 1022 keine Meldung
Di, 23.07. 6:00 1022 + 0,3
Di, 23.07. 5:50 1022 keine Meldung
Di, 23.07. 5:40 1022 keine Meldung
Di, 23.07. 5:30 1022 + 0,1
Di, 23.07. 5:00 1021 - 0,4
Di, 23.07. 4:30 1021 - 0,5
Di, 23.07. 4:00 1021 - 0,5
Di, 23.07. 3:30 1021 - 0,4
Ortszeit Schneehöhe (cm)
Di, 23.07. 2:00 -
Mo, 22.07. 20:00 -
Mo, 22.07. 14:00 -
Mo, 22.07. 8:00 -
Mo, 22.07. 2:00 -
So, 21.07. 20:00 -
So, 21.07. 14:00 -
So, 21.07. 8:00 -
Ortszeit Schneehöhe (cm)
Di, 23.07. 6:30 -
Di, 23.07. 6:20 -
Di, 23.07. 6:10 -
Di, 23.07. 6:00 -
Di, 23.07. 5:50 -
Di, 23.07. 5:40 -
Di, 23.07. 5:30 -
Di, 23.07. 5:00 -
Di, 23.07. 4:30 -
Di, 23.07. 4:00 -
Di, 23.07. 3:30 -
Link zu dieser Seite / Seite empfehlen

Das Wetter in ...